Weather in Abashiri

Japan     43˚58′40″N   144˚09′18″E
temp.,
°C
wind,
m/s
gust,
m/s
humid.,
%
clouds,
%
prec.,
mm/h
press.,
hPa
HPBL,
m
1 december, tue
tue100:00−1˚sw477537 0.0 1020567
03:00−2˚wsw479167 0.6 1020418
06:00−2˚wnw688480 0.4 1020729
09:00−3˚w468789 0.6 1022519
12:00−2˚nw457597 0.8 1020846
15:00−3˚nw568697 1.1 1021612
18:00−3˚w7973100 1.2 1023979
21:00−5˚w687778 1.3 1024610
2 december, wed
wed200:00−5˚w47799 0.0 1024387
03:00−5˚wsw358449 0.1 1024373
06:00−4˚wsw377486 0.0 1024483
09:00−3˚wsw487294 0.1 1024948
12:00−2˚sw3562100 0.1 1022942
15:00wnw51070100 0.4 10221299
18:00−3˚w5107243 0.1 1023563
21:00−3˚sw367569 0.1 1022378
3 december, thu
thu300:00−3˚sw2371100 0.1 1021161
03:00−3˚ssw3574100 0.1 1020170
06:00−3˚sw4676100 0.0 1019176
09:00−2˚sw2269100 0.0 1017175
12:00+1˚sw235939 0.0 1015383
15:00ssw136355 0.1 1013581
18:00−2˚nw6108895 0.1 1014526
21:00−2˚wnw8156958 0.1 1014881
4 december, fri
fri400:00−3˚w7127433 0.1 10151084
03:00−3˚wnw6107561 0.1 1016768
06:00−3˚wnw597962 0.1 1017687
09:00−2˚wsw477072 0.1 1017722
12:00−1˚sw3479100 0.1 1016448
15:00nw497296 0.3 1017751
18:00−1˚w48756 0.0 1019477
21:00−1˚ssw457352 0.0 1019155
5 december, sat
sat500:00−2˚ssw467635 0.0 1019164
03:00−2˚ssw577518 0.0 1019164
06:00−2˚sw46753 0.0 1019118
09:00ssw57672 0.0 1020240
12:00+3˚wsw34573 0.0 1019333
15:00+2˚wnw26624 0.0 1020512
18:00+1˚wsw59611 0.0 1021355
21:00sw23682 0.0 1023158